This is the latest recevied weather packets stored in our database for station/object WX4FUN-13. If no packets are shown the sender has not sent any weather packets the latest 10 day(s).
| Time | Temp. | Humidity | Pressure | Rain* | Wind** | Luminosity | Snow |
|---|---|---|---|---|---|---|---|
| 1777816116 | 10.56° C | 52% | 1009.5 hPa | 0 mm | - | 369 W/m² | - |
| 1777815513 | 10° C | 52% | 1009.6 hPa | 0 mm | - | 345 W/m² | - |
| 1777814913 | 9.44° C | 56% | 1009.7 hPa | 0 mm | - | 275 W/m² | - |
| 1777814313 | 8.89° C | 58% | 1009.8 hPa | 0 mm | - | 320 W/m² | - |
| 1777813714 | 8.89° C | 60% | 1010 hPa | 0 mm | - | 261 W/m² | - |
| 1777813115 | 8.33° C | 59% | 1010 hPa | 0 mm | - | 270 W/m² | - |
| 1777812511 | 8.33° C | 60% | 1010 hPa | 0 mm | - | 219 W/m² | - |
| 1777811913 | 7.78° C | 61% | 1010 hPa | 0 mm | - | 215 W/m² | - |
| 1777811313 | 7.78° C | 61% | 1010 hPa | 0 mm | - | 225 W/m² | - |
| 1777810715 | 7.78° C | 62% | 1010.1 hPa | 0 mm | - | 205 W/m² | - |
| 1777810102 | 7.78° C | 62% | 1010 hPa | 0 mm | - | 184 W/m² | - |
| 1777809498 | 7.22° C | 62% | 1010.1 hPa | 0 mm | - | 266 W/m² | - |
| 1777808888 | 6.67° C | 63% | 1010 hPa | 0 mm | - | 139 W/m² | - |
| 1777808283 | 6.67° C | 64% | 1010.1 hPa | 0 mm | - | 265 W/m² | - |
| 1777807682 | 6.11° C | 64% | 1009.8 hPa | 0 mm | - | 109 W/m² | - |
| 1777807082 | 5.56° C | 65% | 1009.9 hPa | 0 mm | - | 88 W/m² | - |
| 1777806482 | 5.56° C | 66% | 1009.9 hPa | 0 mm | - | 76 W/m² | - |
| 1777805883 | 5° C | 67% | 1009.9 hPa | 0 mm | - | 70 W/m² | - |
| 1777805284 | 4.44° C | 69% | 1009.8 hPa | 0 mm | - | 46 W/m² | - |
| 1777804683 | 3.89° C | 72% | 1009.8 hPa | 0 mm | - | 36 W/m² | - |
| 1777804068 | 3.33° C | 74% | 1009.7 hPa | 0 mm | - | 26 W/m² | - |
| 1777803452 | 3.33° C | 73% | 1009.4 hPa | 0 mm | - | 19 W/m² | - |
| 1777802853 | 3.33° C | 72% | 1009.4 hPa | 0 mm | - | 12 W/m² | - |
| 1777802253 | 3.33° C | 71% | 1009.3 hPa | 0 mm | - | 7 W/m² | - |
| 1777801653 | 3.89° C | 71% | 1009.4 hPa | 0 mm | - | 3 W/m² | - |
* Rain latest hour (hover to see other rain measurements)
** Current wind speed in m/s (hover to see current wind gust speed)